Weather History for Trieste, Italy

Change the Weather History Date:

Wednesday, July 17, 2013

  Actual Average Record
Temperature  
Mean Temperature 76 °F -  
Max Temperature 85 °F 82 °F 93 °F (2010)
Min Temperature 68 °F 67 °F 57 °F (2000)
Cooling Degree Days 12    
Growing Degree Days 26 (Base 50)    
Moisture  
Dew Point 57 °F    
Average Humidity 47    
Maximum Humidity 69    
Minimum Humidity 25    
Precipitation  
Precipitation 0.00 in 0.12 in - ()
Sea Level Pressure  
Sea Level Pressure 30.11 in    
Wind  
Wind Speed 7 mph ()    
Max Wind Speed 18 mph    
Max Gust Speed -    
Visibility 11.4 miles    
Events      
Averages and records for this station are not official NWS values.
T = Trace of Precipitation, MM = Missing Value Source: Averaged Metar Reports

Daily Weather History Graph

Daily Weather History Graph

Search for Another Location

Airport:

Trip Planner

Search our weather history database for the weather conditions in past years. The results will help you decide how hot, cold, wet, or windy it might be!

Date:

Astronomy

Jul. 17, 2013 Rise Set
Actual Time 5:32 AM CEST 8:49 PM CEST
Civil Twilight 4:55 AM CEST 9:25 PM CEST
Nautical Twilight 4:08 AM CEST 10:13 PM CEST
Astronomical Twilight 3:08 AM CEST 11:12 PM CEST
Moon 3:14 PM CEST (7/17) 12:34 AM CEST (7/17)
Length of Visible Light 16h 30m
Length of Day
15h 17m
Waxing Gibbous, 64% of the Moon is Illuminated
Jul 17
Waxing Gibbous
Jul 22
Full
Jul 29
Last Quarter
Aug 6
New
Aug 14
First Quarter

Hourly Weather History & Observations

Time (CEST) Temp. Heat Index Dew Point Humidity Pressure Visibility Wind Dir Wind Speed Gust Speed Precip Events Conditions
12:00 AM 75 °F - 53 °F 36% 30.14 in 12 mi ENE 10.4 mph - -   Scattered Clouds
12:55 AM 73.4 °F - 51.8 °F 47% 30.12 in - East 4.6 mph - N/A   Clear
1:00 AM 74 °F - 52 °F 36% 30.15 in 12 mi East 4.6 mph - -  
1:55 AM 71.6 °F - 51.8 °F 50% 30.12 in - ESE 5.8 mph - N/A   Clear
2:00 AM 72 °F - 53 °F 40% 30.15 in 12 mi ESE 11.2 mph - -  
2:55 AM 71.6 °F - 51.8 °F 50% 30.12 in - East 6.9 mph - N/A   Clear
3:00 AM 72 °F - 51 °F 37% 30.14 in 12 mi East 6.9 mph - -  
3:55 AM 71.6 °F - 51.8 °F 50% 30.12 in - East 8.1 mph - N/A   Clear
4:00 AM 72 °F - 51 °F 37% 30.14 in 12 mi East 15.7 mph - -  
4:55 AM 69.8 °F - 51.8 °F 53% 30.12 in - ENE 3.5 mph - N/A   Clear
5:00 AM 71 °F - 51 °F 38% 30.14 in 12 mi ENE 6.7 mph - -  
5:55 AM 69.8 °F - 50.0 °F 49% 30.12 in - East 3.5 mph - N/A   Clear
6:00 AM 70 °F - 51 °F 40% 30.14 in 12 mi East 6.7 mph - -  
6:55 AM 69.8 °F - 51.8 °F 53% 30.12 in - East 5.8 mph - N/A   Clear
7:00 AM 70 °F - 52 °F 42% 30.15 in 12 mi East 5.8 mph - -  
7:55 AM 73.4 °F - 53.6 °F 50% 30.12 in - North 1.2 mph - N/A   Clear
8:00 AM 74 °F - 53 °F 38% 30.15 in 12 mi North 2.2 mph - -  
8:55 AM 77.0 °F - 51.8 °F 41% 30.12 in - East 8.1 mph - N/A   Clear
9:00 AM 77 °F - 52 °F 31% 30.15 in 12 mi East 8.1 mph - -  
9:55 AM 80.6 °F - 51.8 °F 37% 30.12 in - East 9.2 mph - N/A   Clear
10:00 AM 81 °F - 51 °F 25% 30.14 in 12 mi East 17.9 mph - -  
10:55 AM 84.2 °F 83.0 °F 55.4 °F 37% 30.12 in - ESE 3.5 mph - N/A   Clear
11:00 AM 85 °F - 55 °F 25% 30.14 in 12 mi ESE 6.7 mph - -  
11:55 AM 82.4 °F 82.9 °F 60.8 °F 48% 30.12 in - NNW 5.8 mph - N/A   Clear
12:00 PM 82 °F - 62 °F 40% 30.13 in 12 mi NNW 11.2 mph - -  
12:55 PM 82.4 °F 83.4 °F 62.6 °F 51% 30.12 in - WNW 6.9 mph - N/A   Clear
1:00 PM 83 °F - 62 °F 39% 30.13 in 12 mi WNW 13.4 mph - -  
1:55 PM 84.2 °F 85.6 °F 64.4 °F 51% 30.09 in - West 9.2 mph - N/A   Clear
2:00 PM 84 °F - 64 °F 42% 30.12 in 12 mi West 17.9 mph - -  
2:55 PM 84.2 °F 85.6 °F 64.4 °F 51% 30.09 in 6.2 mi West 9.2 mph - N/A   Partly Cloudy
3:00 PM 84 °F - 64 °F 41% 30.11 in 12 mi West 17.9 mph - -   Scattered Clouds
3:55 PM 82.4 °F 84.6 °F 66.2 °F 58% 30.06 in 6.2 mi West 6.9 mph - N/A   Partly Cloudy
4:00 PM 83 °F - 66 °F 47% 30.09 in 12 mi West 13.4 mph - -   Scattered Clouds
4:55 PM 82.4 °F 84.6 °F 66.2 °F 58% 30.06 in - West 8.1 mph - N/A   Clear
5:55 PM 80.6 °F 82.7 °F 66.2 °F 61% 30.06 in - West 6.9 mph - N/A   Clear
6:00 PM 81 °F - 66 °F 50% 30.08 in 12 mi West 6.9 mph - -  
6:55 PM 80.6 °F 82.3 °F 64.4 °F 58% 30.06 in - West 4.6 mph - N/A   Clear
7:55 PM 78.8 °F - 64.4 °F 61% 30.06 in - West 3.5 mph - N/A   Clear
8:55 PM 77.0 °F - 64.4 °F 65% 30.06 in - NNE 2.3 mph - N/A   Clear
9:55 PM 73.4 °F - 62.6 °F 69% 30.06 in - ENE 4.6 mph - N/A   Clear
10:55 PM 71.6 °F - 60.8 °F 69% 30.09 in - ENE 4.6 mph - N/A   Clear
11:55 PM 73.4 °F - 59.0 °F 61% 30.09 in - East 5.8 mph - N/A   Clear